EHI
0 0 0 0 0 0 0 0 0 0 0 0 0 0 0 0 0 0 0 0 0 0 0 0 0 0 0 0 0 0 0 0 0 0 0 0 0 0 0 0 0 0 0 0
0 0 0 0 0 0 0 0 0 0 0 0 0 0 0 0 0 0 0 0 0 0 0 0 0 0 0 0 0 0 0 0 0 0 0 0 0 0 0 0 0 0 0 0
0 0 0 0 0 0 0 0 0 0 0 0 0 0 0 0 0 0 0 0 0 0 0 0 0 0 0 0 0 0 0 0 0 0 0 0 0 0 0 0 0 0 0 0
0 0 0 0 0 0 0 0 0 0 0 0 0 0 0 0 0 0 0 0 0 0 0 0 0 0 0 0 0 0 0 0 0 0 0 0 0 0 0 0 0 0 0 0
0 0 0 0 0 0 0 0 0 0 0 0 0 0 0 0 0 0 0 0 0 0 0 0 0 0 0 0 0 0 0 0 0 0 0 0 0 0 0 0 0 0 0 0
0 0 0 0 0 0 0 0 0 0 0 0 0 0 0 0 0 0 0 0 0 0 0 0 0 0 0 0 0 0 0 0 0 0 0 0 0 0 0 0 0 0 0 0
0 0 0 0 0 0 0 0 0 0 0 0 0 0 0 0 0 0 0 0 0 0 0 0 0 0 0 0 0 0 0 0 0 0 0 0 0 0 0 0 0 0 0 0
0 0 0 0 0 0 0 0 0 0 0 0 0 0 0 0 0 0 0 0 0 0 0 0 0 0 0 0 0 0 0 0 0 0 0 0 0 0 0 0 0 0 0 0
0 0 0 0 0 0 0 0 0 0 0 0 0 0 0 0 0 0 0 0 0 0 0 0 0 0 0 0 0 0 0 0 0 0 0 0 0 0 0 0 0 0 0 0
0 0 0 0 0 0 0 0 0 0 0 0 0 0 0 0 0 0 0 0 0 0 0 0 0 0 0 0 0 0 0 0 0 0 0 0 0 0 0 0 0 0 0 0
0 0 0 0 0 0 0 0 0 0 0 0 0 0 0 0 0 0 0 0 0 0 0 0 0 0 0 0 0 0 0 0 0 0 0 0 0 0 0 0 0 0 0 0
0 0 0 0 0 0 0 0 0 0 0 0 0 0 0 0 0 0 0 0 0 0 0 0 0 0 0 0 0 0 0 0 0 0 0 0 0 0 0 0 0 0 0 0
0 0 0 0 0 0 0 0 0 0 0 0 0 0 0 0 0 0 0 0 0 0 0 0 0 0 0 0 0 0 0 0 0 0 0 0 0 0 0 0 0 0 0 0
0 0 0 0 0 0 0 0 0 0 0 0 0 0 0 0 0 0 0 0 0 0 0 0 0 0 0 0 0 0 0 0 0 0 0 0 0 0 0 0 0 0 0 0
0 0 0 0 0 0 0 0 0 0 0 0 0 0 0 0 0 0 0 0 0 0 0 0 0 0 0 0 0 0 0 0 0 0 0 0 0 0 0 0 0 0 0 0
0 0 0 0 0 0 0 0 0 0 0 0 0 0 0 0 0 0 0 0 0 0 0 0 0 0 0 0 0 0 0 0 0 0 0 0 0 0 0 0 0 0 0 0
0 0 0 0 0 0 0 0 0 0 0 0 0 0 0 0 0 0 0 0 0 0 0 0 0 0 0 0 0 0 0 0 0 0 0 0 0 0 0 0 0 0 0 0
0 0 0 0 0 0 0 0 0 0 0 0 0 0 0 0 0 0 0 0 0 0 0 0 0 0 0 0 0 0 0 0 0 0 0 0 0 0 0 0 0 0 0 0
0 0 0 0 0 0 0 0 0 0 0 0 0 0 0 0 0 0 0 0 0 0 0 0 0 0 0 0 0 0 0 0 0 0 0 0 0 0 0 0 0 0 0 0
0 0 0 0 0 0 0 0 0 0 0 0 0 0 0 0 0 0 0 0 0 0 0 0 0 0 0 0 0 0 0 0 0 0 0 0 0 0 0 0 0 0 0 0
0 0 0 0 0 0 0 0 0 0 0 0 0 0 0 0 0 0 0 0 0 0 0 0 0 0 0 0 0 0 0 0 0 0 0 0 0 0 0 0 0 0 0 0
0 0 0 0 0 0 0 0 0 0 0 0 0 0 0 0 0 0 0 0 0 0 0 0 0 0 0 0 0 0 0 0 0 0 0 0 0 0 0 0 0 0 0 0
0 0 0 0 0 0 0 0 0 0 0 0 0 0 0 0 0 0 0 0 0 0 0 0 0 0 0 0 0 0 0 0 0 0 0 0 0 0 0 0 0 0 0 0
0 0 0 0 0 0 0 0 0 0 0 0 0 0 0 0 0 0 0 0 0 0 0 0 0 0 0 0 0 0 0 0 0 0 0 0 0 0 0 0 0 0 0 0
0 0 0 0 0 0 0 0 0 0 0 0 0 0 0 0 0 0 0 0 0 0 0 0 0 0 0 0 0 0 0 0 0 0 0 0 0 0 0 0 0 0 0 0
0 0 0 0 0 0 0 0 0 0 0 0 0 0 0 0 0 0 0 0 0 0 0 0 0 0 0 0 0 0 0 0 0 0 0 0 0 0 0 0 0 0 0 0
0 0 0 0 0 0 0 0 0 0 0 0 0 0 0 0 0 0 0 0 0 0 0 0 0 0 0 0 0 0 0 0 0 0 0 0 0 0 0 0 0 0 0 0
Wind_Speed
5 4 4 6 8 10 12 11 10 9 10 10 7 6 5 4 3 3 3 3 4 3 3 3 3 3 3 3 2 2 3 3 2 2 1 1 1 1 2 2 2 2 2 2
4 4 5 8 10 12 13 13 14 13 13 7 5 4 5 5 4 5 5 4 4 4 3 3 3 3 3 3 3 3 3 2 2 2 2 2 1 1 1 1 1 2 2 2
4 2 3 10 11 13 10 10 10 13 10 4 5 5 5 5 5 5 6 5 4 4 3 3 3 3 3 3 3 3 3 2 2 2 2 2 2 1 1 2 2 2 2 2
2 2 9 4 1 7 9 9 10 8 7 6 6 5 5 5 5 6 5 5 4 3 3 3 2 2 2 2 3 3 3 3 2 2 2 2 2 2 1 1 2 2 2 2
3 5 9 4 3 5 6 7 7 9 8 5 3 3 3 2 3 4 4 4 4 3 3 2 2 3 3 3 3 3 3 3 2 2 2 2 2 2 2 2 2 2 2 2
4 6 7 2 2 2 3 5 3 6 6 4 2 4 2 1 2 3 3 3 2 2 2 2 2 2 3 3 3 3 2 2 2 2 3 3 3 2 2 2 2 2 2 2
7 8 8 1 2 5 5 2 0 3 3 3 4 4 4 3 3 3 2 2 2 1 1 1 1 2 3 3 3 2 1 1 2 2 2 3 2 2 2 2 2 2 2 2
6 8 7 4 6 6 2 2 1 2 2 3 4 3 3 3 3 3 3 2 1 1 1 1 2 3 3 3 2 1 2 2 2 2 2 2 2 2 2 2 3 2 2 2
7 5 1 4 4 2 2 2 2 2 2 2 3 3 3 4 4 3 3 2 1 1 1 1 2 3 3 2 1 2 2 2 2 2 2 2 2 3 2 2 2 2 2 2
6 6 4 4 4 4 4 4 3 3 2 3 3 4 4 4 3 3 3 2 1 1 1 1 1 2 2 2 2 2 2 2 2 2 2 2 2 2 2 3 3 2 2 2
7 6 4 5 6 5 4 3 3 3 3 3 3 4 4 4 3 3 2 2 1 1 2 2 1 1 1 1 2 3 3 2 2 2 2 2 2 2 3 3 3 3 2 2
7 4 5 4 3 4 4 4 4 3 3 3 3 4 3 3 3 2 2 1 1 2 2 2 1 1 1 1 2 3 2 2 2 2 2 2 2 2 3 3 4 4 5 4
6 3 4 4 4 4 4 4 3 3 3 3 2 2 3 2 2 2 2 2 2 2 2 2 1 1 1 1 2 2 2 2 2 2 2 2 2 2 2 1 2 3 4 5
5 3 4 4 3 2 2 1 1 1 1 1 2 1 2 2 2 2 2 2 2 1 2 1 1 2 1 1 2 2 2 2 2 2 2 2 2 2 2 2 2 2 2 4
5 5 4 2 2 1 0 0 0 1 1 1 1 1 1 2 2 2 2 1 1 1 1 1 1 2 2 1 2 2 2 2 2 2 2 2 2 2 2 3 2 2 2 2
2 2 3 3 3 2 1 1 2 2 2 2 2 2 2 2 2 1 1 1 1 1 2 2 2 2 1 1 2 2 2 2 2 2 2 2 2 2 2 2 2 2 2 2
3 3 3 3 3 3 2 2 2 2 2 2 2 2 1 1 1 1 1 1 1 2 2 2 2 2 2 2 2 2 2 2 3 2 2 2 2 3 3 2 3 3 3 3
3 2 2 3 2 2 2 1 1 2 2 2 1 1 1 1 1 2 2 1 1 2 2 2 2 2 2 2 2 2 2 2 2 2 2 2 2 2 2 3 3 3 3 3
1 1 1 1 1 1 1 1 1 1 1 1 1 1 1 1 2 1 1 1 1 2 2 2 3 2 2 2 2 2 2 2 2 2 2 3 3 2 2 3 3 3 3 3
1 1 1 1 1 1 1 1 1 1 1 1 1 1 1 1 1 1 1 1 2 2 2 2 2 2 2 2 2 1 2 2 2 2 2 2 2 2 2 2 3 3 3 3
1 1 1 1 1 0 0 0 1 0 0 0 1 1 1 1 1 1 1 1 2 2 2 3 2 2 2 2 2 1 2 2 2 2 2 2 2 2 2 3 3 3 3 3
1 1 1 1 1 0 1 0 0 0 0 0 0 1 0 1 1 1 1 2 2 3 2 2 2 2 2 2 1 1 2 2 2 2 2 2 2 2 3 3 3 3 3 3
0 1 1 1 0 0 1 0 0 1 1 1 1 1 1 1 1 1 1 1 2 3 2 2 3 3 1 0 1 1 1 2 2 2 2 2 2 3 3 3 3 3 3 3
0 0 0 0 1 1 0 1 0 0 1 1 1 1 1 1 1 1 2 3 4 4 2 3 4 3 2 1 1 1 1 2 2 2 2 2 2 2 3 3 3 3 3 4
1 1 1 1 1 1 1 0 0 0 0 1 1 1 1 1 2 2 2 2 3 3 2 2 3 3 2 1 1 1 1 2 2 2 2 2 2 2 2 3 3 3 3 4
1 1 1 1 1 1 1 1 0 0 0 1 1 1 1 1 1 1 1 2 2 2 2 2 2 2 1 1 1 1 2 2 2 2 2 2 2 2 2 3 4 3 4 4
1 0 0 0 0 1 1 1 1 1 1 1 1 1 1 1 1 1 1 1 1 1 1 1 1 1 2 1 1 2 2 2 2 2 2 2 2 2 3 3 3 3 3 4
Wind_Direction
266 277 248 244 232 217 223 234 242 252 255 270 270 269 276 277 278 273 270 267 259 242 225 212 208 199 191 190 189 187 179 183 190 181 176 178 185 193 192 193 200 209 217 227
255 253 250 258 247 233 235 238 244 260 266 266 277 270 265 270 272 272 273 272 264 238 225 217 210 203 195 196 196 191 187 190 184 177 174 182 186 188 199 205 211 216 224 228
244 269 261 252 232 217 220 223 226 240 255 264 270 264 263 263 263 265 272 277 272 252 236 233 223 211 206 206 199 193 191 190 189 184 187 191 179 190 206 213 219 223 228 231
241 214 237 250 152 207 222 238 231 247 267 262 268 284 278 265 261 267 271 272 269 267 257 249 235 220 210 197 194 195 195 193 195 194 195 196 196 204 216 220 220 226 227 232
212 244 266 263 196 186 211 251 230 236 252 266 303 297 269 270 267 273 276 275 277 277 267 251 228 207 189 190 193 195 200 203 206 201 197 200 209 215 218 222 231 234 235 239
206 236 248 262 123 164 192 254 213 219 237 246 247 262 283 329 301 293 300 301 301 293 266 234 222 193 186 192 196 207 214 216 212 208 203 209 215 218 225 226 236 241 244 250
218 239 260 301 146 168 207 262 87 213 223 205 228 269 325 334 317 308 310 313 304 272 248 231 205 191 197 199 214 220 214 208 208 209 211 214 214 216 217 218 223 229 239 248
202 226 244 135 157 201 255 359 278 226 223 230 260 293 313 320 319 322 322 320 304 270 273 253 208 197 204 217 220 203 196 199 210 218 211 211 209 214 218 215 219 224 232 248
209 230 339 174 213 269 314 278 267 250 240 230 255 277 298 308 315 316 313 307 295 267 270 261 226 210 214 227 203 195 199 207 210 214 218 218 216 214 217 219 223 227 234 243
248 252 253 248 260 274 272 271 277 266 247 230 252 274 288 295 303 309 311 303 288 245 248 267 253 238 225 215 201 195 202 212 210 210 216 221 223 219 220 220 223 224 234 245
248 262 276 247 247 258 266 268 267 265 251 242 247 270 279 285 291 298 297 291 255 236 249 268 274 257 237 209 197 202 207 208 212 216 216 220 229 231 233 236 238 237 237 240
240 228 226 250 251 251 251 256 253 256 265 261 246 261 273 278 286 290 283 278 262 255 257 268 268 267 264 232 207 202 208 212 214 216 221 225 227 240 239 247 251 257 261 259
253 257 249 262 268 260 256 262 261 251 254 265 268 259 264 276 285 286 279 264 253 254 259 261 260 273 277 245 216 211 216 222 222 222 226 230 234 234 242 247 246 254 259 263
241 237 249 249 254 272 272 284 322 346 306 275 275 268 263 273 280 272 270 270 267 254 252 250 252 266 277 238 221 223 225 227 232 228 231 235 241 242 239 245 260 270 265 262
234 229 228 240 258 277 298 188 211 296 322 316 290 265 256 254 266 277 288 290 258 238 248 251 257 273 287 244 226 228 231 228 229 235 236 238 242 243 238 242 252 263 271 266
230 222 217 224 237 249 237 220 236 270 295 295 289 283 277 267 274 289 288 237 220 249 266 262 265 276 274 251 235 233 233 238 243 238 236 236 235 237 236 240 247 252 256 267
185 207 210 224 234 238 236 235 243 263 279 275 278 291 285 259 276 292 302 292 267 270 269 260 266 276 266 253 240 240 237 230 231 235 234 236 238 240 239 241 247 255 260 264
221 222 209 206 209 216 237 250 249 257 262 268 276 247 215 219 253 288 308 327 325 313 294 277 278 275 263 255 246 245 237 234 230 233 237 240 247 245 243 244 247 252 261 264
170 163 164 181 206 200 223 248 255 261 269 241 211 225 238 247 258 277 296 306 296 297 306 305 290 280 266 254 246 240 234 233 239 245 248 252 257 253 249 249 252 256 260 263
101 111 123 117 101 155 208 252 257 263 266 202 186 205 261 281 274 266 265 275 278 291 303 295 280 276 271 253 243 239 234 236 243 250 250 250 255 259 259 259 260 261 263 264
115 109 120 129 107 51 283 246 206 232 277 174 190 220 261 298 297 261 255 297 319 310 298 294 293 284 269 252 237 238 239 244 248 249 250 254 260 262 263 266 267 267 269 270
126 117 122 138 130 11 348 314 237 221 201 193 223 229 256 298 302 279 255 267 304 316 310 299 296 284 281 260 237 238 245 249 252 252 254 258 259 261 266 270 270 270 270 272
147 142 159 177 185 274 335 323 256 225 228 241 241 242 254 278 280 273 295 305 305 314 318 307 307 307 318 306 281 261 258 258 258 258 261 262 262 264 267 271 273 272 273 274
152 147 155 143 128 130 315 318 314 282 271 274 269 262 262 276 286 276 285 304 320 321 318 317 325 335 354 337 307 293 282 275 271 268 266 267 267 269 271 273 274 275 275 275
151 139 142 156 171 221 266 292 360 7 355 321 315 299 268 260 265 289 301 302 314 325 324 332 344 354 353 319 307 296 289 285 285 281 274 270 269 270 273 274 274 276 276 276
155 179 201 227 240 252 250 226 228 270 302 313 320 321 320 306 285 284 291 305 318 339 342 335 334 339 329 319 309 301 295 295 292 288 283 279 277 277 277 277 279 277 278 279
136 154 193 257 260 237 232 227 231 253 261 266 290 311 319 318 312 314 315 320 331 336 332 332 333 330 326 322 314 305 297 295 292 290 285 281 282 284 285 284 282 282 282 281